Biloxi, MS

7:56 PM CST on November 18, 2017 (GMT -0600)
Keesler Air Force Base

Weather History for KBIX - December, 2013

Change the Weather History Date:

Wednesday, December 4, 2013

  Actual Average Record
Temperature  
Mean Temperature 66 °F -  
Max Temperature 71 °F 65 °F 77 °F (1998)
Min Temperature 61 °F 46 °F 32 °F (1979)
Cooling Degree Days 1    
Growing Degree Days 16 (Base 50)    
Moisture  
Dew Point 67 °F    
Average Humidity 99    
Maximum Humidity 100    
Minimum Humidity 83    
Precipitation  
Precipitation 0.38 in - - ()
Sea Level Pressure  
Sea Level Pressure 29.92 in    
Wind  
Wind Speed 8 mph (SSW)    
Max Wind Speed 12 mph    
Max Gust Speed -    
Visibility 3 miles    
Events Fog , Rain    
Averages and records for this station are not official NWS values.
T = Trace of Precipitation, MM = Missing Value Source: NWS Daily Summary

Daily Weather History Graph

Daily Weather History Graph

Search for Another Location

Airport or City:

Trip Planner

Search our weather history database for the weather conditions in past years. The results will help you decide how hot, cold, wet, or windy it might be!

Date:

Astronomy

Dec. 04, 2013 Rise Set
Actual Time 6:37 AM CST 4:54 PM CST
Civil Twilight 6:11 AM CST 5:20 PM CST
Nautical Twilight 5:41 AM CST 5:50 PM CST
Astronomical Twilight 5:12 AM CST 6:19 PM CST
Moon 8:07 AM CST (12/4) 7:01 PM CST (12/4)
Length of Visible Light 11h 09m
Length of Day
10h 17m
Waxing Crescent, 4% of the Moon is Illuminated
Dec 4
Waxing Crescent
Dec 9
First Quarter
Dec 17
Full
Dec 25
Last Quarter
Jan 1
New

Hourly Weather History & Observations

Time (CST) Temp. Dew Point Humidity Pressure Visibility Wind Dir Wind Speed Gust Speed Precip Events Conditions
12:58 AM 63.7 °F 63.7 °F 100% 29.87 in 10.0 mi SSW 10.4 mph - N/A   Partly Cloudy
1:33 AM 62.6 °F 62.6 °F 100% 29.86 in 9.0 mi SW 8.1 mph - N/A   Clear
1:48 AM 62.6 °F 62.6 °F 100% 29.87 in 7.0 mi SSW 5.8 mph - N/A   Clear
1:58 AM 61.9 °F 61.9 °F 100% 29.88 in 6.0 mi SSW 6.9 mph - N/A   Scattered Clouds
2:08 AM 62.6 °F 62.6 °F 100% 29.87 in 6.0 mi SW 8.1 mph - N/A   Mostly Cloudy
2:18 AM 64.4 °F 64.4 °F 100% 29.87 in 6.0 mi SSW 6.9 mph - N/A   Overcast
2:53 AM 64.4 °F 64.4 °F 100% 29.86 in 5.0 mi SSW 8.1 mph - N/A   Overcast
2:58 AM 64.2 °F 64.2 °F 100% 29.87 in 4.0 mi SSW 6.9 mph - N/A   Overcast
3:03 AM 64.4 °F 64.4 °F 100% 29.86 in 2.5 mi SSW 8.1 mph - N/A   Overcast
3:08 AM 64.4 °F 64.4 °F 100% 29.87 in 1.0 mi SSW 6.9 mph - N/A   Mist
3:13 AM 64.4 °F 64.4 °F 100% 29.87 in 0.8 mi SSW 8.1 mph - N/A   Mist
3:18 AM 64.4 °F 64.4 °F 100% 29.87 in 0.5 mi SSW 8.1 mph - N/A Fog Fog
3:33 AM 64.4 °F 64.4 °F 100% 29.87 in 0.2 mi SSW 8.1 mph - N/A Fog Fog
3:43 AM 64.4 °F 64.4 °F 100% 29.87 in 0.5 mi SSW 6.9 mph - N/A Fog Fog
3:58 AM 64.2 °F 64.2 °F 100% 29.88 in 0.5 mi SSW 5.8 mph - N/A Fog Fog
4:23 AM 64.4 °F 64.4 °F 100% 29.87 in 0.8 mi SSW 5.8 mph - N/A   Mist
4:53 AM 64.4 °F 64.4 °F 100% 29.87 in 0.5 mi SSW 5.8 mph - N/A Fog Fog
4:58 AM 63.9 °F 63.9 °F 100% 29.88 in 0.5 mi SSW 5.8 mph - N/A Fog Fog
5:28 AM 64.4 °F 64.4 °F 100% 29.87 in 0.8 mi SSW 8.1 mph - N/A   Mist
5:43 AM 64.4 °F 64.4 °F 100% 29.88 in 0.5 mi SW 9.2 mph - N/A Fog Fog
5:58 AM 63.5 °F 63.5 °F 100% 29.89 in 0.8 mi SSW 8.1 mph - N/A   Mist
6:03 AM 64.4 °F 64.4 °F 100% 29.89 in 0.5 mi SSW 6.9 mph - N/A Fog Fog
6:43 AM 64.4 °F 64.4 °F 100% 29.89 in 0.2 mi SSW 8.1 mph - N/A Fog Fog
6:58 AM 64.0 °F 64.0 °F 100% 29.91 in 0.2 mi SSW 9.2 mph - N/A Fog Fog
7:38 AM 64.4 °F 64.4 °F 100% 29.92 in 0.5 mi South 10.4 mph - N/A Fog Fog
7:48 AM 64.4 °F 64.4 °F 100% 29.92 in 0.2 mi SSW 8.1 mph - N/A Fog Fog
7:58 AM 64.8 °F 64.8 °F 100% 29.94 in 0.2 mi SSW 6.9 mph - N/A Fog Fog
8:03 AM 64.4 °F 64.4 °F 100% 29.93 in 0.5 mi SW 9.2 mph - N/A Fog Fog
8:13 AM 66.2 °F 66.2 °F 100% 29.93 in 0.2 mi SW 8.1 mph - N/A Fog Fog
8:53 AM 66.2 °F 66.2 °F 100% 29.95 in 0.5 mi SSW 8.1 mph - N/A Fog Fog
8:58 AM 66.0 °F 66.0 °F 100% 29.96 in 0.2 mi SSW 8.1 mph - N/A Fog Fog
9:18 AM 68.0 °F 68.0 °F 100% 29.96 in 0.5 mi SSW 6.9 mph - N/A Fog Fog
9:33 AM 68.0 °F 68.0 °F 100% 29.97 in 0.8 mi SW 6.9 mph - N/A   Mist
9:43 AM 68.0 °F 68.0 °F 100% 29.97 in 0.8 mi SSW 8.1 mph - N/A   Mist
9:48 AM 68.0 °F 68.0 °F 100% 29.97 in 1.0 mi SW 6.9 mph - N/A   Mist
9:53 AM 66.2 °F 66.2 °F 100% 29.97 in 1.2 mi SSW 5.8 mph - N/A   Overcast
9:58 AM 66.7 °F 66.7 °F 100% 29.99 in 1.2 mi SSW 4.6 mph - N/A   Overcast
10:03 AM 66.2 °F 66.2 °F 100% 29.97 in 1.8 mi SSW 3.5 mph - N/A   Overcast
10:08 AM 66.2 °F 66.2 °F 100% 29.98 in 2.5 mi SSW 3.5 mph - N/A   Overcast
10:09 AM 66.2 °F 66.2 °F 100% 29.98 in 1.0 mi SW 4.6 mph - N/A   Overcast
10:33 AM 68.0 °F 68.0 °F 100% 29.97 in 2.0 mi SSW 5.8 mph - N/A   Overcast
10:44 AM 69.8 °F 69.8 °F 100% 29.97 in 3.0 mi SW 6.9 mph - N/A   Overcast
10:53 AM 69.8 °F 69.8 °F 100% 29.96 in 3.0 mi SSW 8.1 mph - N/A   Overcast
10:58 AM 70.0 °F 69.8 °F 99% 29.97 in 2.0 mi SSW 8.1 mph - N/A   Overcast
11:03 AM 69.8 °F 69.8 °F 100% 29.96 in 8.0 mi SSW 10.4 mph - N/A   Overcast
11:08 AM 69.8 °F 69.8 °F 100% 29.95 in 1.0 mi SSW 10.4 mph - N/A   Overcast
11:16 AM 69.8 °F 69.8 °F 100% 29.95 in 0.8 mi SSW 8.1 mph - N/A   Overcast
11:23 AM 69.8 °F 69.8 °F 100% 29.95 in 2.5 mi SSW 8.1 mph - N/A   Overcast
11:28 AM 69.8 °F 69.8 °F 100% 29.95 in 2.0 mi SSW 8.1 mph - N/A   Overcast
11:33 AM 69.8 °F 68.0 °F 94% 29.94 in 3.0 mi SW 10.4 mph - N/A   Overcast
11:43 AM 69.8 °F 68.0 °F 94% 29.94 in 2.0 mi SSW 9.2 mph - N/A   Overcast
11:58 AM 70.7 °F 67.1 °F 88% 29.94 in 2.0 mi SSW 9.2 mph - N/A   Mist
12:08 PM 69.8 °F 66.2 °F 88% 29.93 in 2.0 mi SSW 9.2 mph - N/A   Overcast
12:13 PM 69.8 °F 66.2 °F 88% 29.93 in 10.0 mi SW 9.2 mph - N/A   Overcast
12:58 PM 71.6 °F 67.3 °F 86% 29.91 in 10.0 mi SSW 6.9 mph - N/A   Overcast
1:03 PM 71.6 °F 68.0 °F 88% 29.90 in 10.0 mi South 8.1 mph - N/A   Mostly Cloudy
1:08 PM 71.6 °F 68.0 °F 88% 29.90 in 10.0 mi South 6.9 mph - N/A   Scattered Clouds
1:53 PM 71.6 °F 66.2 °F 83% 29.90 in 10.0 mi South 4.6 mph - N/A   Mostly Cloudy
1:58 PM 70.3 °F 67.1 °F 89% 29.91 in 10.0 mi South 5.8 mph - N/A   Mostly Cloudy
2:03 PM 69.8 °F 68.0 °F 94% 29.90 in 10.0 mi South 5.8 mph - N/A   Mostly Cloudy
2:08 PM 71.6 °F 68.0 °F 88% 29.90 in 10.0 mi South 4.6 mph - N/A   Mostly Cloudy
2:18 PM 69.8 °F 68.0 °F 94% 29.90 in 10.0 mi South 5.8 mph - N/A   Overcast
2:33 PM 69.8 °F 68.0 °F 94% 29.89 in 10.0 mi South 6.9 mph - N/A   Overcast
2:58 PM 71.1 °F 68.5 °F 92% 29.90 in 10.0 mi South 8.1 mph - N/A   Overcast
3:12 PM 69.8 °F 68.0 °F 94% 29.88 in 0.5 mi South 6.9 mph - N/A Fog Fog
3:27 PM 69.8 °F 69.8 °F 100% 29.88 in 1.0 mi South 6.9 mph - N/A   Mist
3:32 PM 69.8 °F 69.8 °F 100% 29.88 in 0.8 mi SSE 5.8 mph - N/A   Mist
3:37 PM 69.8 °F 69.8 °F 100% 29.88 in 0.8 mi SSE 6.9 mph - N/A   Mist
3:42 PM 69.8 °F 69.8 °F 100% 29.88 in 1.0 mi SSE 6.9 mph - N/A   Mist
3:47 PM 68.0 °F 68.0 °F 100% 29.88 in 1.2 mi SSE 6.9 mph - N/A   Overcast
3:52 PM 69.8 °F 69.8 °F 100% 29.88 in 1.5 mi SSE 6.9 mph - N/A   Overcast
3:58 PM 68.9 °F 68.9 °F 100% 29.89 in 2.5 mi SSE 6.9 mph - N/A   Overcast
4:14 PM 69.8 °F 69.8 °F 100% 29.88 in 2.5 mi South 6.9 mph - N/A Rain Light Rain
4:28 PM 69.8 °F 69.8 °F 100% 29.89 in 4.0 mi South 8.1 mph - N/A Rain Light Rain
4:36 PM 69.8 °F 69.8 °F 100% 29.89 in 3.0 mi South 6.9 mph - N/A Rain Light Rain
4:51 PM 68.0 °F 68.0 °F 100% 29.90 in 2.5 mi SSW 9.2 mph - N/A Rain Rain
4:56 PM 68.0 °F 68.0 °F 100% 29.89 in 1.0 mi South 6.9 mph - N/A Rain Heavy Rain
4:58 PM 68.5 °F 68.5 °F 100% 29.90 in 1.0 mi SSE 6.9 mph - 0.36 in Rain Heavy Rain
5:03 PM 69.8 °F 69.8 °F 100% 29.89 in 1.2 mi SSE 4.6 mph - N/A Rain Light Rain
5:08 PM 69.8 °F 69.8 °F 100% 29.89 in 7.0 mi South 5.8 mph - N/A Rain Light Rain
5:09 PM 69.8 °F 69.8 °F 100% 29.89 in 10.0 mi South 5.8 mph - N/A   Overcast
5:16 PM 69.8 °F 69.8 °F 100% 29.89 in 10.0 mi South 8.1 mph - N/A Rain Light Rain
5:28 PM 69.8 °F 69.8 °F 100% 29.89 in 10.0 mi South 5.8 mph - N/A   Mostly Cloudy
5:33 PM 69.8 °F 69.8 °F 100% 29.89 in 10.0 mi South 6.9 mph - N/A   Mostly Cloudy
5:43 PM 69.8 °F 69.8 °F 100% 29.89 in 10.0 mi SSW 6.9 mph - N/A   Mostly Cloudy
5:53 PM 69.8 °F 69.8 °F 100% 29.89 in 9.0 mi South 9.2 mph - N/A   Overcast
5:58 PM 69.6 °F 69.6 °F 100% 29.91 in 6.0 mi South 8.1 mph - 0.02 in   Overcast
6:03 PM 69.8 °F 69.8 °F 100% 29.90 in 2.5 mi SSW 5.8 mph - N/A   Overcast
6:08 PM 68.0 °F 68.0 °F 100% 29.91 in 1.2 mi SW 4.6 mph - N/A   Overcast
6:11 PM 68.0 °F 68.0 °F 100% 29.90 in 0.5 mi South 4.6 mph - N/A Fog Fog
6:17 PM 68.0 °F 68.0 °F 100% 29.90 in 0.5 mi South 5.8 mph - N/A Fog Fog
6:23 PM 68.0 °F 68.0 °F 100% 29.90 in 0.8 mi SSE 4.6 mph - N/A   Mist
6:33 PM 68.0 °F 68.0 °F 100% 29.91 in 0.8 mi South 5.8 mph - N/A   Mist
6:38 PM 68.0 °F 68.0 °F 100% 29.91 in 0.8 mi South 5.8 mph - N/A   Mist
6:43 PM 68.0 °F 68.0 °F 100% 29.90 in 0.5 mi South 6.9 mph - N/A Fog Fog
6:48 PM 68.0 °F 68.0 °F 100% 29.90 in 0.5 mi South 6.9 mph - N/A Fog Fog
6:53 PM 68.0 °F 68.0 °F 100% 29.91 in 0.8 mi South 9.2 mph - N/A   Mist
6:58 PM 68.4 °F 68.4 °F 100% 29.92 in 0.8 mi South 9.2 mph - N/A   Mist
7:03 PM 68.0 °F 68.0 °F 100% 29.91 in 1.2 mi South 9.2 mph - N/A   Overcast
7:08 PM 68.0 °F 68.0 °F 100% 29.91 in 2.5 mi South 10.4 mph - N/A   Overcast
7:13 PM 68.0 °F 68.0 °F 100% 29.91 in 4.0 mi South 10.4 mph - N/A   Overcast
7:18 PM 68.0 °F 68.0 °F 100% 29.91 in 5.0 mi South 11.5 mph - N/A   Overcast
7:23 PM 68.0 °F 68.0 °F 100% 29.91 in 7.0 mi South 10.4 mph - N/A   Overcast
7:28 PM 68.0 °F 68.0 °F 100% 29.91 in 10.0 mi South 9.2 mph - N/A   Overcast
7:58 PM 68.0 °F 68.0 °F 100% 29.93 in 10.0 mi South 9.2 mph - N/A   Mostly Cloudy
8:03 PM 68.0 °F 68.0 °F 100% 29.92 in 10.0 mi South 9.2 mph - N/A   Mostly Cloudy
8:13 PM 68.0 °F 68.0 °F 100% 29.93 in 10.0 mi South 10.4 mph - N/A   Overcast
8:23 PM 68.0 °F 68.0 °F 100% 29.93 in 10.0 mi South 10.4 mph - N/A   Overcast
8:28 PM 68.0 °F 68.0 °F 100% 29.93 in 10.0 mi South 9.2 mph - N/A   Overcast
8:33 PM 68.0 °F 68.0 °F 100% 29.93 in 9.0 mi South 9.2 mph - N/A   Overcast
8:38 PM 68.0 °F 68.0 °F 100% 29.93 in 5.0 mi SSW 9.2 mph - N/A   Overcast
8:43 PM 68.0 °F 68.0 °F 100% 29.93 in 2.5 mi SSW 8.1 mph - N/A   Overcast
8:48 PM 68.0 °F 68.0 °F 100% 29.93 in 1.8 mi SSW 8.1 mph - N/A   Overcast
8:53 PM 68.0 °F 68.0 °F 100% 29.94 in 1.2 mi SSW 8.1 mph - N/A   Overcast
8:58 PM 67.5 °F 67.5 °F 100% 29.95 in 1.0 mi SSW 8.1 mph - N/A   Mist
9:03 PM 66.2 °F 66.2 °F 100% 29.95 in 1.0 mi SSW 8.1 mph - N/A   Mist
9:07 PM 66.2 °F 66.2 °F 100% 29.95 in 0.5 mi SSW 8.1 mph - N/A Fog Fog
9:15 PM 66.2 °F 66.2 °F 100% 29.95 in 0.8 mi SSW 8.1 mph - N/A   Mist
9:20 PM 66.2 °F 66.2 °F 100% 29.95 in 1.0 mi SSW 6.9 mph - N/A Rain Light Rain
9:25 PM 66.2 °F 66.2 °F 100% 29.95 in 1.0 mi SSW 9.2 mph - N/A   Light Drizzle
9:30 PM 66.2 °F 66.2 °F 100% 29.95 in 1.0 mi SSW 10.4 mph - N/A   Mist
9:35 PM 68.0 °F 68.0 °F 100% 29.95 in 0.8 mi SW 8.1 mph - N/A   Mist
9:40 PM 66.2 °F 66.2 °F 100% 29.95 in 0.8 mi SW 8.1 mph - N/A   Mist
9:41 PM 66.2 °F 66.2 °F 100% 29.95 in 0.5 mi SSW 6.9 mph - N/A Fog Fog
9:58 PM 66.4 °F 66.4 °F 100% 29.96 in 0.5 mi SSW 8.1 mph - 0.00 in Fog Fog
10:28 PM 66.2 °F 66.2 °F 100% 29.96 in 0.5 mi SSW 6.9 mph - N/A Fog Fog
10:33 PM 66.2 °F 66.2 °F 100% 29.96 in 0.8 mi SW 6.9 mph - N/A   Mist
10:38 PM 66.2 °F 66.2 °F 100% 29.96 in 0.5 mi SSW 5.8 mph - N/A Fog Fog
10:43 PM 66.2 °F 66.2 °F 100% 29.96 in 0.5 mi SSW 6.9 mph - N/A Fog Fog
10:48 PM 66.2 °F 66.2 °F 100% 29.96 in 0.5 mi SSW 6.9 mph - N/A Fog Fog
10:58 PM 66.0 °F 66.0 °F 100% 29.97 in 0.5 mi SW 6.9 mph - N/A Fog Fog
11:58 PM 66.7 °F 66.7 °F 100% 29.97 in 0.5 mi SSW 9.2 mph - N/A Fog Fog